Regional Weather Roundup
Issued by NWS Midland/Odessa, TX

Home | Current Version | Previous Version | Text Only | Print | Product List | Glossary On
Versions: 1 2 3 4 5 6 7 8 9 10 11 12 13 14 15 16 17 18 19 20 21 22 23 24 25 26 27 28 29 30 31 32 33 34 35 36 37 38 39 40 41 42 43 44 45 46 47 48 49 50
000
ASUS44 KMAF 072210
RWRMAF
MIDLAND AREA WEATHER ROUNDUP
NATIONAL WEATHER SERVICE MIDLAND TX
400 PM CST SUN FEB 07 2016

...IN SOUTHWEST TEXAS AND SOUTHEAST NEW MEXICO...

CITY           SKY/WX    TMP DP  RH WIND       PRES   REMARKS
ALPINE         SUNNY     72   4   7 E6        30.21R
ANDREWS        FAIR      67  19  16 N13G22    30.14S
ARTESIA        SUNNY     66  19  16 NE14G21   30.16S
BIG SPRING     SUNNY     67  21  17 N14G21    30.13S
CARLSBAD       SUNNY     69  18  14 N12       30.14S
DRYDEN           N/A     77   8   7 W9G21     30.06S
FORT STOCKTON  CLOUDY    69  11  10 NW9       30.13S
GUAD PASS      CLOUDY    62  11  13 SW12      30.22F
HOBBS          SUNNY     66  16  14 N13G18    30.17R
MARFA          SUNNY     68   2   7 W17G24    30.19S
MIDLAND AIRPK  SUNNY     70  19  14 NE12G17   30.12F
MIDLAND INTL   SUNNY     70  20  15 N16       30.12S
ODESSA         SUNNY     70  19  14 NE14      30.13S
PECOS          CLOUDY    70  19  14 N10       30.12S
PRESIDIO       FAIR      68  10  10 MISG      30.14F
SEMINOLE       SUNNY     67  19  16 NE12      30.15F
SNYDER           N/A     65  17  15 N16G24    30.13R
WINK           SUNNY     72  19  13 N10       30.11S
$$
...OTHER STATIONS IN TEXAS...

CITY           SKY/WX    TMP DP  RH WIND       PRES   REMARKS
ABILENE        SUNNY     62  21  20 N16       30.10R
AMARILLO       SUNNY     56  20  24 NE15      30.22S
AUSTIN         MOSUNNY   66  31  27 SW12      30.10F
BROWNSVILLE    MOSUNNY   70  37  29 S14G21    30.15F
CORPUS CHRISTI PTSUNNY   71  40  32 SE18      30.14F
DALLAS FTW     SUNNY     64  31  28 S5        30.09S
DEL RIO        SUNNY     69  17  13 SE8       30.08F
EL PASO        PTSUNNY   62  10  13 SW7       30.21S
HOUSTON INT    MOSUNNY   65  33  30 VRB7      30.14S
LUBBOCK        MOSUNNY   64  19  17 NE13      30.16S
SAN ANGELO     SUNNY     72  18  13 NW16      30.07S
SAN ANTONIO    MOSUNNY   67  28  23 SW17      30.10F
WACO           SUNNY     66  34  30 S9        30.09F
WICHITA FALLS  NOT AVBL
$$
...OTHER LOCATIONS IN NEW MEXICO...

CITY           SKY/WX    TMP DP  RH WIND       PRES   REMARKS
ALAMAGORDO     SUNNY     66  14  13 N20       30.19F
ALBUQUERQUE    MOSUNNY   56  15  20 N16       30.28F
CANNON AFB     SUNNY     60  18  19 NE9       30.19S
CLOVIS         SUNNY     61  19  20 NE12      30.21S
HOLLOMAN AFB   SUNNY     65  13  13 N15G22    30.19F
ROSWELL        SUNNY     67  16  14 NE15      30.16F
RUIDOSO        SUNNY     55  12  18 NW10      30.28F
SANTA FE       SUNNY     51  14  22 NW14      30.26F
TRUTH OR CONSE SUNNY     62  14  15 E9        30.23F
TUCUMCARI      SUNNY     61  17  18 E8        30.19F
$$



USA.gov is the U.S. government's official web portal to all federal, state and local government web resources and services.